Location: Camp Crooked Creek
(37.9149°N, 85.6607°W)
Time: 14:49:31
(UTC-05:00)

Amateur Radio Satellites - All Passes

Search period start: 02 December 2016 14:19
Search period end: 03 December 2016 14:19
Location: Camp Crooked Creek, 37.9149°N, 85.6607°W

Satellite Date Start Highest point End Downlink Frequencies (MHz)
Time Altitude Azimuth
DX 1 02 Dec 14:33:05 14:35:24 14° 295° (WNW) 14:37:42 434.975-435.025
SWISSCUBE 02 Dec 14:38:58 14:43:06 29° 97° (E) 14:47:12 437.505
Cosmos 2499 02 Dec 14:41:39 14:47:31 21° 281° (W) 14:53:09 435.465 / 435.565
BEESAT 02 Dec 14:43:29 14:47:37 29° 97° (E) 14:51:42 436.000
UKube-1 02 Dec 14:48:56 14:50:48 13° 296° (WNW) 14:52:40 .
Gurwin Techsat 1B 02 Dec 14:50:35 14:55:06 28° 264° (W) 14:59:39 435.225
AO-7 02 Dec 14:57:56 15:06:02 61° 67° (ENE) 15:14:11 29.400- 29.500
RS-15 02 Dec 15:00:36 15:09:48 23° 23° (NNE) 15:18:53 29.354- 29.394
BEESAT 3 02 Dec 15:02:14 15:05:48 31° 53° (NE) 15:09:22 437.485
ITUPSAT 1 02 Dec 15:07:54 15:12:34 51° 100° (E) 15:17:11 437.325
JUGNU 02 Dec 15:09:13 15:11:45 13° 180° (S) 15:14:15 437.505
TISAT 1 02 Dec 15:10:21 15:13:42 23° 291° (WNW) 15:17:03 437.305
BEESAT 2 02 Dec 15:22:31 15:25:51 24° 51° (NE) 15:29:10 435.950
AUBIESAT-1 02 Dec 15:23:14 15:27:53 78° 107° (ESE) 15:32:21 437.475
M-CUBED/EXP-1 PRIME 02 Dec 15:31:51 15:36:33 69° 289° (WNW) 15:41:05 437.505
ITAMSAT 1 02 Dec 15:46:49 15:51:33 34° 262° (W) 15:56:18 435.822/435.867
KKS-1 02 Dec 15:51:05 15:53:21 14° 92° (E) 15:55:37 437.445
HORYU 2 02 Dec 16:02:49 16:04:53 13° 64° (ENE) 16:06:57 437.375
SWISSCUBE 02 Dec 16:16:49 16:20:46 27° 292° (WNW) 16:24:42 437.505
BEESAT 02 Dec 16:21:19 16:25:16 27° 292° (WNW) 16:29:13 436.000
MOZHAYETS 4 02 Dec 16:25:47 16:30:22 87° 103° (ESE) 16:34:54
O/OREOS (USA 219) 02 Dec 16:26:07 16:29:40 23° 102° (ESE) 16:33:13 437.305
BEESAT 3 02 Dec 16:40:16 16:43:14 20° 249° (WSW) 16:46:11 437.485
SRMSAT 02 Dec 16:40:40 16:42:43 12° 174° (S) 16:44:45 437.500
ITUPSAT 1 02 Dec 16:47:06 16:49:57 16° 296° (WNW) 16:52:47 437.325
AO-7 02 Dec 16:52:26 16:59:12 27° 264° (W) 17:06:01 29.400- 29.500
CUTE-I 02 Dec 16:53:10 16:56:11 15° 62° (ENE) 16:59:12 437.470
ISS 02 Dec 16:58:47 17:00:48 15° 129° (SE) 17:02:50 145.825
JUGNU 02 Dec 16:59:14 16:59:51 10° 190° (S) 17:00:27 437.505
AUBIESAT-1 02 Dec 17:00:00 17:01:34 12° 303° (WNW) 17:03:08 437.475
BEESAT 2 02 Dec 17:00:09 17:03:35 27° 247° (WSW) 17:07:01 435.950
GOMX 1 02 Dec 17:02:09 17:05:48 25° 68° (ENE) 17:09:40 467.674
BRITE-PL 02 Dec 17:04:57 17:09:06 69° 76° (ENE) 17:13:30 437.365/2234.400
RS-15 02 Dec 17:13:26 17:25:42 61° 53° (NE) 17:37:31 29.354- 29.394
AIST 2 02 Dec 17:14:56 17:16:36 12° 43° (NE) 17:18:17 435.215
Cubesat XI-IV 02 Dec 17:16:16 17:20:33 25° 66° (ENE) 17:24:50 437.490
LilacSat-2 02 Dec 17:24:39 17:27:42 22° 70° (ENE) 17:30:43 437.200
KKS-1 02 Dec 17:25:49 17:30:10 49° 287° (WNW) 17:34:29 437.445
NOAA 15 02 Dec 17:27:20 17:32:01 35° 69° (ENE) 17:36:44 137.62
DOVE 4 02 Dec 17:33:09 17:36:52 24° 67° (ENE) 17:40:45 437.250
HORYU 2 02 Dec 17:36:29 17:40:55 58° 259° (W) 17:45:21 437.375
STARS 02 Dec 17:43:01 17:47:27 70° 285° (WNW) 17:51:49 437.465
HO-68 02 Dec 17:48:31 17:51:51 14° 54° (NE) 17:55:10 435.675
CUBESAT XI-V 02 Dec 17:54:25 17:59:05 77° 284° (WNW) 18:03:44 437.345
O/OREOS (USA 219) 02 Dec 18:04:48 18:08:53 31° 298° (WNW) 18:12:57 437.305
NOAA 18 02 Dec 18:05:33 18:10:49 48° 70° (ENE) 18:16:07 137.9125
Cosmos 2491 02 Dec 18:09:41 18:17:26 34° 72° (ENE) 18:25:06 435.465 / 435.565
SRMSAT 02 Dec 18:28:42 18:30:59 12° 184° (S) 18:33:16 437.500
CUTE-I 02 Dec 18:30:17 18:35:37 68° 257° (WSW) 18:40:59 437.470
ISS 02 Dec 18:33:49 18:37:01 47° 324° (NW) 18:40:14 145.825
YUBILEINY 02 Dec 18:38:34 18:44:37 21° 80° (E) 18:50:40 435.215
GOMX 1 02 Dec 18:40:02 18:43:47 27° 266° (W) 18:47:46 467.674
AIST 2 02 Dec 18:51:23 18:55:37 79° 240° (WSW) 18:59:49 435.215
Cubesat XI-IV 02 Dec 18:55:21 19:00:21 40° 262° (W) 19:05:24 437.490
LilacSat-2 02 Dec 18:58:48 19:01:52 22° 265° (W) 19:04:56 437.200
CUTE 1.7 + AOD 2 02 Dec 19:00:21 19:03:51 26° 70° (ENE) 19:07:20 437.475
NOAA 15 02 Dec 19:07:28 19:11:48 26° 264° (W) 19:16:10 137.62
DOVE 4 02 Dec 19:10:09 19:14:19 33° 264° (W) 19:18:46 437.250
CANX-2 02 Dec 19:16:52 19:20:55 47° 74° (ENE) 19:24:58 2200.000
CINEMA 3 02 Dec 19:19:24 19:24:14 77° 75° (ENE) 19:29:14 145.822/145.860
UWE-3 02 Dec 19:21:35 19:23:47 13° 65° (ENE) 19:26:00 435.000/436.395/437.385
RS-15 02 Dec 19:26:42 19:37:39 40° 254° (WSW) 19:48:15 29.354- 29.394
HO-68 02 Dec 19:31:15 19:38:23 77° 72° (ENE) 19:45:34 435.675
AAUSAT CUBESAT 2 02 Dec 19:43:10 19:46:37 26° 71° (ENE) 19:50:04 437.432
NOAA 18 02 Dec 19:47:35 19:51:40 21° 266° (W) 19:55:47 137.9125
SEEDS 02 Dec 19:50:32 19:54:40 67° 76° (ENE) 19:58:49 437.485
STRAND 1 02 Dec 19:55:43 20:00:47 63° 101° (ESE) 20:05:49 437.568
AIST 1 02 Dec 20:03:15 20:06:38 23° 89° (E) 20:10:02
CUBEBUG 2 02 Dec 20:04:11 20:08:50 58° 74° (ENE) 20:13:32 437.445
Cosmos 2491 02 Dec 20:06:11 20:14:26 49° 271° (W) 20:22:39 435.465 / 435.565
COMPASS 1 02 Dec 20:08:34 20:12:40 72° 76° (ENE) 20:16:48 437.405
ZACube-1 02 Dec 20:09:54 20:13:41 26° 70° (ENE) 20:17:27 437.345
ISS 02 Dec 20:12:55 20:14:10 12° 343° (NNW) 20:15:26 145.825
Cosmos 2504 02 Dec 20:16:33 20:24:12 46° 88° (E) 20:32:21 435.465 / 435.565
FUNcube-1 02 Dec 20:19:42 20:23:40 30° 71° (ENE) 20:27:37 145.935
YUBILEINY 02 Dec 20:31:46 20:40:26 73° 279° (W) 20:49:11 435.215
CUTE 1.7 + AOD 2 02 Dec 20:36:13 20:39:36 23° 265° (W) 20:43:00 437.475
PCSat 02 Dec 20:51:31 20:55:13 18° 47° (NE) 20:58:54 145.827
UWE-3 02 Dec 20:55:05 20:59:42 61° 260° (W) 21:04:19 435.000/436.395/437.385
Oscar 11 02 Dec 20:55:06 20:59:24 72° 76° (ENE) 21:03:43 145.826/435.025
CANX-2 02 Dec 20:55:07 20:57:00 13° 268° (W) 20:58:52 2200.000
PRISM 02 Dec 20:56:34 20:59:08 16° 94° (E) 21:01:42 437.425
CINEMA 3 02 Dec 21:01:14 21:01:54 10° 272° (W) 21:02:34 145.822/145.860
DELFI C3 02 Dec 21:15:35 21:19:14 39° 73° (ENE) 21:22:55 145.870
AAUSAT CUBESAT 2 02 Dec 21:18:53 21:22:02 21° 265° (W) 21:25:12 437.432
HO-68 02 Dec 21:22:15 21:26:44 17° 268° (W) 21:31:15 435.675
SO-50 02 Dec 21:30:08 21:34:55 84° 120° (ESE) 21:39:40 436.795
STRAND 1 02 Dec 21:36:35 21:39:24 15° 297° (WNW) 21:42:11 437.568
AIST 1 02 Dec 21:40:33 21:44:05 25° 285° (WNW) 21:47:40
CUBEBUG 2 02 Dec 21:43:32 21:45:46 13° 269° (W) 21:48:00 437.445
ZACube-1 02 Dec 21:45:55 21:49:50 28° 264° (W) 21:53:44 437.345
CUSAT 1 02 Dec 21:52:48 21:56:10 48° 262° (W) 22:00:31 437.405
UNISAT 6 02 Dec 21:54:14 21:56:52 15° 92° (E) 21:59:27 437.425
FUNcube-1 02 Dec 21:56:13 21:59:52 23° 265° (W) 22:03:30 145.935
DANDE 02 Dec 22:01:33 22:04:02 31° 80° (E) 22:06:54 436.750
Cosmos 2504 02 Dec 22:10:19 22:17:42 36° 288° (WNW) 22:25:34 435.465 / 435.565
HUMSAT D 02 Dec 22:11:26 22:15:41 82° 258° (WSW) 22:19:54 437.325/437.525
ESTCUBE 1 02 Dec 22:24:21 22:27:28 19° 67° (ENE) 22:30:36 437.505/2401.250
TIGRISAT 02 Dec 22:24:24 22:28:21 31° 96° (E) 22:32:13 435.000
ANTELSAT 02 Dec 22:24:47 22:28:48 34° 97° (E) 22:32:44 437.575/2403.000
PRISM 02 Dec 22:30:42 22:34:32 37° 288° (WNW) 22:38:22 437.425
PCSat 02 Dec 22:33:44 22:39:07 68° 246° (WSW) 22:44:28 145.827
YUBILEINY 02 Dec 22:35:22 22:38:54 13° 300° (WNW) 22:42:28 435.215
AISAT 02 Dec 22:47:48 22:50:15 15° 65° (ENE) 22:52:43 437.250
DELFI C3 02 Dec 22:52:23 22:54:12 13° 268° (W) 22:56:02 145.870
JAS-2 02 Dec 22:55:18 22:57:45 13° 92° (E) 23:00:13 435.910
SO-50 02 Dec 23:13:30 23:15:58 14° 317° (NW) 23:18:25 436.795
NANOSAT C BR1 02 Dec 23:21:22 23:23:26 13° 92° (E) 23:25:30 145.865
CUBEBUG 1 02 Dec 23:22:00 23:26:10 47° 73° (ENE) 23:30:23 437.445
QB50P2 02 Dec 23:22:55 23:25:38 16° 93° (E) 23:28:19 145.880/145.840
VELOX 1 02 Dec 23:23:15 23:27:12 33° 70° (ENE) 23:31:09 145.980
POLYITAN 1 02 Dec 23:23:41 23:26:15 16° 93° (E) 23:28:49 437.675
ISS 02 Dec 23:27:26 23:29:38 16° 24° (NNE) 23:31:50 145.825
UNISAT 6 02 Dec 23:29:36 23:33:46 41° 288° (WNW) 23:37:50 437.425
QB50P1 02 Dec 23:37:20 23:40:42 22° 95° (E) 23:44:01 145.935-145.965
DUCHIFAT 1 02 Dec 23:44:28 23:47:51 23° 95° (E) 23:51:11 145.980
DX 1 02 Dec 23:49:09 23:53:05 34° 71° (ENE) 23:57:02 434.975-435.025
50 SAT 02 Dec 23:49:36 23:53:01 52° 75° (ENE) 23:56:26 437.505
POPSAT HIP 1 02 Dec 23:57:59 00:01:58 38° 98° (E) 00:05:54 437.405
ESTCUBE 1 02 Dec 23:59:51 00:03:58 37° 262° (W) 00:08:08 437.505/2401.250
TIGRISAT 03 Dec 00:01:31 00:04:49 21° 293° (WNW) 00:08:03 435.000
ANTELSAT 03 Dec 00:02:05 00:05:15 20° 293° (WNW) 00:08:22 437.575/2403.000
UKube-1 03 Dec 00:03:42 00:07:38 37° 71° (ENE) 00:11:37 .
AISAT 03 Dec 00:22:01 00:26:16 48° 260° (W) 00:30:35 437.250
SPROUT 03 Dec 00:23:53 00:28:10 78° 256° (WSW) 00:32:30 437.525
TISAT 1 03 Dec 00:25:14 00:27:56 17° 66° (ENE) 00:30:39 437.305
JAS-2 03 Dec 00:38:09 00:43:15 61° 287° (WNW) 00:48:31 435.910
M-CUBED/EXP-1 PRIME 03 Dec 00:45:59 00:46:16 10° 56° (NE) 00:46:32 437.505
NANOSAT C BR1 03 Dec 00:55:20 00:59:23 45° 287° (WNW) 01:03:23 145.865
BUGSAT 1 03 Dec 00:56:09 01:00:19 59° 101° (E) 01:04:24 437.445
QB50P2 03 Dec 00:57:37 01:01:32 36° 289° (WNW) 01:05:25 145.880/145.840
POLYITAN 1 03 Dec 00:58:15 01:02:11 38° 288° (WNW) 01:06:06 437.675
VELOX 1 03 Dec 01:00:29 01:03:41 20° 266° (W) 01:06:56 145.980
CUBEBUG 1 03 Dec 01:00:33 01:02:41 13° 268° (W) 01:04:51 437.445
ISS 03 Dec 01:03:10 01:06:30 80° 220° (SW) 01:09:47 145.825
GONETS M04 03 Dec 01:08:49 01:17:06 50° 89° (E) 01:25:20
QB50P1 03 Dec 01:12:49 01:16:25 27° 290° (WNW) 01:19:57 145.935-145.965
Cosmos 2499 03 Dec 01:19:27 01:27:41 64° 91° (E) 01:36:23 435.465 / 435.565
DUCHIFAT 1 03 Dec 01:19:56 01:23:27 26° 290° (WNW) 01:26:57 145.980
DX 1 03 Dec 01:26:17 01:29:20 19° 266° (W) 01:32:24 434.975-435.025
Gurwin Techsat 1B 03 Dec 01:29:37 01:32:32 15° 91° (E) 01:35:25 435.225
POPSAT HIP 1 03 Dec 01:34:43 01:37:24 17° 294° (WNW) 01:40:05 437.405
PHONESAT 2.4 03 Dec 01:38:23 01:40:16 18° 149° (SSE) 01:42:11 2401.200-2431.200
UKube-1 03 Dec 01:40:57 01:43:47 17° 266° (W) 01:46:38 .
SWISSCUBE 03 Dec 01:43:45 01:47:49 28° 69° (ENE) 01:51:53 437.505
BEESAT 03 Dec 01:48:13 01:52:16 28° 68° (ENE) 01:56:19 436.000
TISAT 1 03 Dec 01:59:17 02:03:13 38° 261° (W) 02:07:13 437.305
Oscar 19 03 Dec 02:01:08 02:06:17 62° 101° (ESE) 02:11:25 437.125/150
AUBIESAT-1 03 Dec 02:06:56 02:10:53 69° 71° (ENE) 02:15:10 437.475
ITUPSAT 1 03 Dec 02:12:44 02:17:21 49° 72° (ENE) 02:21:58 437.325
M-CUBED/EXP-1 PRIME 03 Dec 02:16:05 02:19:59 73° 254° (WSW) 02:24:16 437.505
BUGSAT 1 03 Dec 02:33:53 02:35:07 11° 296° (WNW) 02:36:21 437.445
O/OREOS (USA 219) 03 Dec 02:37:02 02:41:05 32° 63° (ENE) 02:45:05 437.305
KKS-1 03 Dec 02:48:49 02:50:06 11° 62° (ENE) 02:51:21 437.445
AO-7 03 Dec 03:02:52 03:08:47 21° 93° (E) 03:14:40 29.400- 29.500
GONETS M04 03 Dec 03:06:26 03:14:05 34° 288° (WNW) 03:21:47
Gurwin Techsat 1B 03 Dec 03:07:36 03:12:52 62° 287° (WNW) 03:18:06 435.225
PHONESAT 2.4 03 Dec 03:12:39 03:15:19 85° 337° (NNW) 03:17:59 2401.200-2431.200
AO-85 03 Dec 03:13:14 03:18:14 71° 119° (ESE) 03:22:52 145.980
Cosmos 2499 03 Dec 03:14:30 03:21:25 27° 291° (WNW) 03:28:38 435.465 / 435.565
SWISSCUBE 03 Dec 03:21:28 03:25:31 27° 264° (W) 03:29:35 437.505
MOZHAYETS 4 03 Dec 03:25:31 03:30:05 66° 75° (ENE) 03:34:39
BEESAT 03 Dec 03:25:54 03:29:57 28° 264° (W) 03:34:02 436.000
Oscar 19 03 Dec 03:42:03 03:45:03 16° 297° (WNW) 03:48:03 437.125/150
ITUPSAT 1 03 Dec 03:52:34 03:55:25 16° 267° (W) 03:58:16 437.325
ITAMSAT 1 03 Dec 04:00:47 04:06:00 86° 281° (WNW) 04:11:10 435.822/435.867
O/OREOS (USA 219) 03 Dec 04:16:54 04:20:15 21° 259° (WSW) 04:23:34 437.305
KKS-1 03 Dec 04:21:36 04:26:02 69° 259° (W) 04:30:31 437.445
STARS 03 Dec 04:37:24 04:41:48 81° 76° (ENE) 04:46:16 437.465
PHONESAT 2.4 03 Dec 04:48:09 04:50:44 44° 0° (N) 04:53:19 2401.200-2431.200
AO-7 03 Dec 04:53:52 05:02:14 77° 290° (WNW) 05:10:35 29.400- 29.500
CUBESAT XI-V 03 Dec 04:55:38 05:00:13 83° 75° (ENE) 05:04:49 437.345
AO-85 03 Dec 04:56:12 04:59:04 15° 314° (NW) 05:01:48 145.980
MOZHAYETS 4 03 Dec 05:06:42 05:07:38 11° 270° (W) 05:08:34
GOMX 1 03 Dec 05:07:12 05:08:41 11° 88° (E) 05:10:11 467.674
BRITE-PL 03 Dec 05:10:28 05:15:11 30° 96° (E) 05:20:03 437.365/2234.400
HORYU 2 03 Dec 05:29:24 05:33:17 29° 97° (E) 05:37:07 437.375
ITAMSAT 1 03 Dec 05:44:18 05:44:37 10° 301° (WNW) 05:44:56 435.822/435.867
NOAA 15 03 Dec 05:45:25 05:48:15 14° 92° (E) 05:51:05 137.62
SO-50 03 Dec 06:03:25 06:07:45 43° 54° (NE) 06:12:00 436.795
Cosmos 2504 03 Dec 06:13:08 06:18:00 16° 62° (ENE) 06:22:44 435.465 / 435.565
PHONESAT 2.4 03 Dec 06:23:29 06:26:09 90° 84° (E) 06:28:48 2401.200-2431.200
BEESAT 3 03 Dec 06:27:31 06:31:25 82° 303° (WNW) 06:35:22 437.485
NOAA 18 03 Dec 06:30:00 06:34:20 23° 95° (E) 06:38:36 137.9125
LilacSat-2 03 Dec 06:32:59 06:36:34 40° 98° (E) 06:40:07 437.200
GOMX 1 03 Dec 06:41:50 06:47:18 85° 283° (WNW) 06:52:48 467.674
YUBILEINY 03 Dec 06:44:07 06:52:42 53° 78° (ENE) 07:01:15 435.215
BRITE-PL 03 Dec 06:48:47 06:53:34 34° 289° (WNW) 06:58:33 437.365/2234.400
AO-7 03 Dec 06:48:54 06:53:39 17° 309° (NW) 06:58:25 29.400- 29.500
CUTE-I 03 Dec 06:49:08 06:54:24 56° 101° (E) 06:59:35 437.470
BEESAT 2 03 Dec 06:49:13 06:53:08 75° 118° (ESE) 06:57:06 435.950
HO-68 03 Dec 07:03:16 07:07:06 15° 90° (E) 07:10:54 435.675
HORYU 2 03 Dec 07:06:09 07:09:40 23° 292° (WNW) 07:13:09 437.375
Cosmos 2491 03 Dec 07:08:32 07:16:33 42° 87° (E) 07:24:33 435.465 / 435.565
STRAND 1 03 Dec 07:09:39 07:14:47 75° 74° (ENE) 07:19:56 437.568
DOVE 4 03 Dec 07:09:51 07:15:11 79° 102° (ESE) 07:20:23 437.250
Cubesat XI-IV 03 Dec 07:13:54 07:19:17 86° 284° (WNW) 07:24:36 437.490
CINEMA 3 03 Dec 07:17:00 07:20:42 22° 93° (E) 07:24:18 145.822/145.860
NOAA 15 03 Dec 07:23:12 07:28:24 62° 287° (WNW) 07:33:37 137.62
RS-15 03 Dec 07:34:22 07:45:02 44° 107° (ESE) 07:56:09 29.354- 29.394
SEEDS 03 Dec 07:37:52 07:39:41 12° 92° (E) 07:41:28 437.485
SO-50 03 Dec 07:44:51 07:47:50 18° 250° (WSW) 07:50:48 436.795
AIST 1 03 Dec 07:48:15 07:52:38 64° 81° (E) 07:56:59
COMPASS 1 03 Dec 07:54:43 07:56:38 13° 92° (E) 07:58:31 437.405
CUBEBUG 2 03 Dec 07:58:53 08:01:00 13° 91° (E) 08:03:04 437.445
PHONESAT 2.4 03 Dec 07:59:23 08:01:10 16° 211° (SSW) 08:02:57 2401.200-2431.200
Cosmos 2504 03 Dec 08:03:59 08:12:53 81° 83° (E) 08:21:15 435.465 / 435.565
LilacSat-2 03 Dec 08:08:51 08:10:28 12° 294° (WNW) 08:12:05 437.200
NOAA 18 03 Dec 08:09:54 08:15:07 44° 290° (WNW) 08:20:18 137.9125
CUTE 1.7 + AOD 2 03 Dec 08:21:41 08:25:53 65° 101° (E) 08:30:03 437.475
GOMX 1 03 Dec 08:22:58 08:24:31 11° 299° (WNW) 08:26:06 467.674
BEESAT 2 03 Dec 08:30:10 08:31:26 11° 317° (NW) 08:32:41 435.950
CUTE-I 03 Dec 08:30:28 08:33:56 18° 297° (WNW) 08:37:24 437.470
CANX-2 03 Dec 08:39:01 08:43:11 65° 285° (WNW) 08:47:21 2200.000
YUBILEINY 03 Dec 08:41:38 08:49:01 31° 276° (W) 08:56:26 435.215
Oscar 11 03 Dec 08:45:26 08:47:52 15° 92° (E) 08:50:18 145.826/435.025
UWE-3 03 Dec 08:47:05 08:50:52 29° 96° (E) 08:54:33 435.000/436.395/437.385
AIST 2 03 Dec 08:47:20 08:50:58 31° 113° (ESE) 08:54:38 435.215
HO-68 03 Dec 08:48:20 08:55:34 87° 289° (WNW) 09:02:47 435.675
DOVE 4 03 Dec 08:49:45 08:52:06 13° 298° (WNW) 08:54:27 437.250
UNISAT 6 03 Dec 08:51:57 08:54:10 13° 64° (ENE) 08:56:21 437.425
STRAND 1 03 Dec 08:52:58 08:54:27 11° 270° (W) 08:55:56 437.568
CINEMA 3 03 Dec 08:53:30 08:57:54 35° 289° (WNW) 09:02:07 145.822/145.860
Cubesat XI-IV 03 Dec 08:57:24 08:58:29 11° 301° (WNW) 08:59:35 437.490
AAUSAT CUBESAT 2 03 Dec 09:01:27 09:05:34 63° 101° (E) 09:09:40 437.432
Cosmos 2491 03 Dec 09:05:13 09:13:19 40° 286° (WNW) 09:21:26 435.465 / 435.565
SEEDS 03 Dec 09:11:35 09:15:36 46° 286° (WNW) 09:19:36 437.485
PRISM 03 Dec 09:17:42 09:21:43 67° 258° (WSW) 09:25:48 437.425
TIGRISAT 03 Dec 09:21:10 09:24:58 25° 69° (ENE) 09:28:46 435.000
ANTELSAT 03 Dec 09:21:37 09:25:32 27° 69° (ENE) 09:29:26 437.575/2403.000
COMPASS 1 03 Dec 09:28:25 09:32:23 45° 286° (WNW) 09:36:20 437.405
CUBEBUG 2 03 Dec 09:33:38 09:37:56 48° 286° (WNW) 09:42:02 437.445
ZACube-1 03 Dec 09:35:23 09:39:38 65° 101° (E) 09:43:46 437.345
FUNcube-1 03 Dec 09:45:02 09:49:17 78° 102° (ESE) 09:53:26 145.935
RS-15 03 Dec 09:45:40 09:57:10 56° 309° (NW) 10:09:15 29.354- 29.394
HUMSAT D 03 Dec 09:57:35 10:00:15 17° 93° (E) 10:02:55 437.325/437.525
Cosmos 2504 03 Dec 09:59:26 10:05:04 19° 282° (WNW) 10:10:33 435.465 / 435.565
CUTE 1.7 + AOD 2 03 Dec 10:00:50 10:01:08 10° 296° (WNW) 10:01:26 437.475
QB50P2 03 Dec 10:15:38 10:16:43 11° 64° (ENE) 10:17:47 145.880/145.840
POLYITAN 1 03 Dec 10:16:39 10:17:22 10° 63° (ENE) 10:18:04 437.675
Oscar 11 03 Dec 10:20:07 10:24:11 42° 287° (WNW) 10:28:13 145.826/435.025
UWE-3 03 Dec 10:23:51 10:27:08 21° 292° (WNW) 10:30:21 435.000/436.395/437.385
UNISAT 6 03 Dec 10:25:39 10:30:19 62° 259° (W) 10:34:58 437.425
AIST 2 03 Dec 10:26:10 10:29:27 23° 310° (NW) 10:32:46 435.215
DELFI C3 03 Dec 10:28:46 10:32:45 87° 102° (ESE) 10:36:44 145.870
QB50P1 03 Dec 10:28:59 10:31:21 15° 65° (ENE) 10:33:43 145.935-145.965
DUCHIFAT 1 03 Dec 10:35:31 10:37:53 15° 66° (ENE) 10:40:16 145.980
HO-68 03 Dec 10:38:12 10:42:16 16° 304° (NW) 10:46:20 435.675
JAS-2 03 Dec 10:47:34 10:53:57 47° 72° (ENE) 10:59:37 435.910
POPSAT HIP 1 03 Dec 10:48:57 10:52:23 24° 69° (ENE) 10:55:49 437.405
CUSAT 1 03 Dec 10:55:04 10:58:16 30° 280° (W) 11:00:57 437.405
TIGRISAT 03 Dec 10:57:20 11:01:29 31° 263° (W) 11:05:38 435.000
ANTELSAT 03 Dec 10:58:04 11:02:06 28° 264° (W) 11:06:10 437.575/2403.000
DANDE 03 Dec 11:06:56 11:12:19 72° 98° (E) 11:16:19 436.750
Cosmos 2499 03 Dec 11:14:38 11:20:45 21° 65° (ENE) 11:26:35 435.465 / 435.565
ZACube-1 03 Dec 11:14:54 11:15:18 10° 297° (WNW) 11:15:41 437.345
CUBEBUG 1 03 Dec 11:15:32 11:15:51 10° 90° (E) 11:16:10 437.445
GONETS M04 03 Dec 11:21:58 11:28:20 22° 67° (ENE) 11:34:40
PCSat 03 Dec 11:31:56 11:35:45 20° 106° (ESE) 11:39:36 145.827
HUMSAT D 03 Dec 11:32:17 11:35:57 32° 288° (WNW) 11:39:34 437.325/437.525
BUGSAT 1 03 Dec 11:43:58 11:47:44 32° 71° (ENE) 11:51:30 437.445
NANOSAT C BR1 03 Dec 11:44:57 11:49:13 81° 258° (WSW) 11:53:31 145.865
AO-85 03 Dec 11:47:04 11:50:38 31° 53° (NE) 11:54:06 145.980
QB50P2 03 Dec 11:47:41 11:51:55 64° 259° (WSW) 11:56:12 145.880/145.840
POLYITAN 1 03 Dec 11:48:17 11:52:33 67° 259° (W) 11:56:51 437.675
ESTCUBE 1 03 Dec 11:53:33 11:57:56 50° 99° (E) 12:02:19 437.505/2401.250
QB50P1 03 Dec 12:02:36 12:06:42 45° 261° (W) 12:10:50 145.935-145.965
RS-15 03 Dec 12:04:40 12:13:23 22° 339° (NNW) 12:22:17 29.354- 29.394
DUCHIFAT 1 03 Dec 12:09:05 12:13:10 45° 261° (W) 12:17:16 145.980
SPROUT 03 Dec 12:12:14 12:15:24 20° 94° (E) 12:18:34 437.525
AISAT 03 Dec 12:13:48 12:17:54 34° 98° (E) 12:21:58 437.250
POPSAT HIP 1 03 Dec 12:24:23 12:28:01 26° 264° (W) 12:31:39 437.405
JAS-2 03 Dec 12:33:34 12:39:04 26° 264° (W) 12:44:05 435.910
CUBEBUG 1 03 Dec 12:48:07 12:52:31 65° 285° (WNW) 12:56:54 437.445
Gurwin Techsat 1B 03 Dec 12:48:42 12:52:37 21° 65° (ENE) 12:56:32 435.225
50 SAT 03 Dec 12:50:22 12:53:56 81° 102° (ESE) 12:57:29 437.505
VELOX 1 03 Dec 12:50:39 12:55:08 87° 98° (E) 12:59:36 145.980
Cosmos 2499 03 Dec 13:06:14 13:14:54 78° 265° (W) 13:22:54 435.465 / 435.565
JUGNU 03 Dec 13:07:29 13:08:27 10° 171° (S) 13:09:27 437.505
PCSat 03 Dec 13:13:28 13:18:43 51° 302° (WNW) 13:24:01 145.827
DX 1 03 Dec 13:14:28 13:18:52 84° 100° (E) 13:23:16 434.975-435.025
Oscar 19 03 Dec 13:16:09 13:21:15 75° 75° (ENE) 13:26:23 437.125/150
GONETS M04 03 Dec 13:17:19 13:26:00 75° 266° (W) 13:34:41
BUGSAT 1 03 Dec 13:20:07 13:23:07 19° 266° (W) 13:26:09 437.445
UKube-1 03 Dec 13:27:49 13:32:10 88° 99° (E) 13:36:31 .
AO-85 03 Dec 13:28:03 13:30:46 18° 249° (WSW) 13:33:28 145.980
ESTCUBE 1 03 Dec 13:31:46 13:34:18 15° 295° (WNW) 13:36:49 437.505/2401.250
ITAMSAT 1 03 Dec 13:40:27 13:43:15 15° 62° (ENE) 13:46:04 435.822/435.867
TISAT 1 03 Dec 13:44:42 13:48:34 34° 98° (E) 13:52:23 437.305
SPROUT 03 Dec 13:47:33 13:51:21 31° 289° (WNW) 13:55:07 437.525
AISAT 03 Dec 13:50:49 13:54:06 20° 293° (WNW) 13:57:22 437.250
M-CUBED/EXP-1 PRIME 03 Dec 13:59:51 14:00:25 10° 94° (E) 14:01:00 437.505
AO-7 03 Dec 14:00:13 14:06:47 27° 57° (ENE) 14:13:23 29.400- 29.500
